Location: Unspecified
(51.5147°N, 7.4673°E)
Time: 06:35:39
(UTC+01:00)

A-11 Canister half - Pass Details

Date: 18 February 2026
Orbit: 1524 x 1683 km, 47.3° (Epoch: 14 March)

Event Time Altitude Azimuth Distance (km) Brightness Sun altitude
Rises 22:12:36 0° 284° (WNW) 4,679 12.3 -39.5°
Reaches altitude 10° 22:15:47 10° 278° (W) 3,694 11.5 -39.9°
Enters shadow 22:22:24 40° 240° (WSW) 2,124 9.7 -40.7°
